Check out our new BloomSky Weather System.

Active alerts


No alerts


Thunder radar  blitzortung!


Rain radar more information rain snow radar


Visit our other weather sites:

Template documentation
and downloads

And another site



Weather Underground History page Text

Daily Summary for March 6, 2017 Units:  English    Metric   Both
« Previous Day
Next Day »
Daily Weekly Monthly Yearly Custom
  High: Low: Average:
Temperature: TemperatureF °F 68.9 °F 72.6 °F
Dew Point: DewpointF °F 67.5 °F 69.6 °F
Humidity: Humidity % 81 % 90 %
Wind Speed: WindSpeedMPH mph 1.0 mph 6 mph
Wind Gust: WindSpeedGustMPH mph - -
Wind:- - SSE
Pressure: PressureIn in 29.91 in -
Precipitation: 0.05 in    
Historical Graphs
 
 
Tabular Data for March 6, 2017
Time Temperature Dew Point Pressure Wind Wind Speed Wind Gust Humidity Rainfall Rate (Hourly)
TemperatureF °F DewpointF °F PressureIn in Calm     Humidity % HourlyPrecipIn in
00:04 68.9 °F 67.5 °F 30.06 in South 4.0 mph 13.0 mph 95 % 0.00 in
00:09 68.9 °F 67.5 °F 30.06 in SW 11.0 mph 13.0 mph 95 % 0.00 in
00:14 69.1 °F 67.6 °F 30.06 in SE 5.0 mph 13.0 mph 95 % 0.00 in
00:19 69.1 °F 67.6 °F 30.06 in SSE 8.0 mph 11.0 mph 95 % 0.00 in
00:24 69.1 °F 67.6 °F 30.06 in SE 10.0 mph 11.0 mph 95 % 0.00 in
00:29 69.1 °F 67.6 °F 30.05 in ESE 8.0 mph 12.0 mph 95 % 0.00 in
00:34 69.1 °F 67.6 °F 30.05 in ESE 9.0 mph 14.0 mph 95 % 0.00 in
00:39 69.1 °F 67.6 °F 30.05 in South 5.0 mph 14.0 mph 95 % 0.00 in
00:44 69.1 °F 67.6 °F 30.05 in SSW 7.0 mph 14.0 mph 95 % 0.00 in
00:49 69.3 °F 67.8 °F 30.05 in SE 10.0 mph 14.0 mph 95 % 0.00 in
00:54 69.3 °F 67.8 °F 30.05 in South 4.0 mph 12.0 mph 95 % 0.00 in
00:59 69.3 °F 67.8 °F 30.05 in SE 6.0 mph 14.0 mph 95 % 0.00 in
01:04 69.3 °F 67.8 °F 30.05 in SSE 5.0 mph 14.0 mph 95 % 0.00 in
01:09 69.3 °F 67.8 °F 30.05 in SE 7.0 mph 14.0 mph 95 % 0.00 in
01:14 69.3 °F 67.8 °F 30.05 in SSE 7.0 mph 12.0 mph 95 % 0.00 in
01:19 69.3 °F 67.8 °F 30.04 in SE 7.0 mph 12.0 mph 95 % 0.00 in
01:24 69.3 °F 67.8 °F 30.04 in SE 6.0 mph 11.0 mph 95 % 0.00 in
01:29 69.3 °F 67.8 °F 30.04 in ESE 4.0 mph 13.0 mph 95 % 0.00 in
01:34 69.3 °F 67.8 °F 30.04 in ESE 4.0 mph 13.0 mph 95 % 0.00 in
01:39 69.4 °F 68.0 °F 30.04 in SE 5.0 mph 13.0 mph 95 % 0.00 in
01:44 69.3 °F 67.8 °F 30.04 in ESE 9.0 mph 12.0 mph 95 % 0.00 in
01:49 69.4 °F 68.0 °F 30.04 in SSW 5.0 mph 12.0 mph 95 % 0.00 in
01:54 69.4 °F 68.0 °F 30.04 in South 4.0 mph 12.0 mph 95 % 0.00 in
01:59 69.4 °F 68.0 °F 30.04 in SE 4.0 mph 13.0 mph 95 % 0.00 in
02:04 69.4 °F 68.0 °F 30.04 in SE 11.0 mph 13.0 mph 95 % 0.00 in
02:09 69.4 °F 68.0 °F 30.03 in SSE 4.0 mph 13.0 mph 95 % 0.00 in
02:10 69.4 °F 68.0 °F 30.03 in South 4.0 mph 12.0 mph 95 % 0.00 in
02:15 69.4 °F 68.0 °F 30.03 in SSE 4.0 mph 12.0 mph 95 % 0.00 in
02:20 69.4 °F 68.0 °F 30.03 in SSE 4.0 mph 12.0 mph 95 % 0.00 in
02:25 69.4 °F 68.0 °F 30.03 in SE 3.0 mph 12.0 mph 95 % 0.00 in
02:30 69.4 °F 68.0 °F 30.03 in SE 5.0 mph 12.0 mph 95 % 0.00 in
02:35 69.4 °F 68.0 °F 30.02 in ESE 6.0 mph 12.0 mph 95 % 0.00 in
02:40 69.4 °F 68.0 °F 30.02 in SE 11.0 mph 12.0 mph 95 % 0.00 in
02:45 69.4 °F 68.0 °F 30.02 in ESE 4.0 mph 13.0 mph 95 % 0.00 in
02:50 69.4 °F 68.0 °F 30.02 in SSE 4.0 mph 13.0 mph 95 % 0.00 in
02:55 69.4 °F 68.0 °F 30.02 in South 5.0 mph 13.0 mph 95 % 0.00 in
03:00 69.4 °F 68.0 °F 30.02 in SSE 3.0 mph 10.0 mph 95 % 0.00 in
03:05 69.4 °F 68.0 °F 30.02 in SE 8.0 mph 12.0 mph 95 % 0.00 in
03:10 69.6 °F 68.2 °F 30.01 in ESE 7.0 mph 14.0 mph 95 % 0.00 in
03:15 69.4 °F 68.0 °F 30.01 in SSE 8.0 mph 14.0 mph 95 % 0.00 in
03:20 69.6 °F 68.2 °F 30.01 in SSE 7.0 mph 14.0 mph 95 % 0.00 in
03:25 69.4 °F 68.0 °F 30.01 in SE 9.0 mph 12.0 mph 95 % 0.00 in
03:30 69.4 °F 68.0 °F 30.01 in South 7.0 mph 12.0 mph 95 % 0.00 in
03:35 69.4 °F 68.0 °F 30.01 in SE 5.0 mph 12.0 mph 95 % 0.00 in
03:40 69.4 °F 68.0 °F 30.01 in SSE 7.0 mph 12.0 mph 95 % 0.00 in
03:45 69.4 °F 68.0 °F 30.01 in SE 3.0 mph 10.0 mph 95 % 0.00 in
03:50 69.4 °F 68.0 °F 30.01 in SE 5.0 mph 12.0 mph 95 % 0.00 in
03:55 69.4 °F 68.0 °F 30.01 in ESE 10.0 mph 14.0 mph 95 % 0.00 in
04:00 69.4 °F 68.0 °F 30.01 in ESE 7.0 mph 14.0 mph 95 % 0.00 in
04:05 69.4 °F 68.0 °F 30.00 in SE 5.0 mph 14.0 mph 95 % 0.00 in
04:10 69.4 °F 68.0 °F 30.00 in ESE 6.0 mph 11.0 mph 95 % 0.00 in
04:15 69.4 °F 68.0 °F 30.00 in SE 2.0 mph 10.0 mph 95 % 0.00 in
04:20 69.4 °F 68.0 °F 30.00 in SE 4.0 mph 9.0 mph 95 % 0.00 in
04:25 69.4 °F 68.0 °F 30.00 in SE 3.0 mph 9.0 mph 95 % 0.00 in
04:30 69.4 °F 68.0 °F 30.00 in SE 5.0 mph 9.0 mph 95 % 0.00 in
04:36 69.4 °F 68.0 °F 30.00 in SSE 5.0 mph 11.0 mph 95 % 0.00 in
04:41 69.4 °F 68.0 °F 30.00 in SE 4.0 mph 11.0 mph 95 % 0.00 in
04:46 69.4 °F 68.0 °F 30.00 in SSE 4.0 mph 11.0 mph 95 % 0.00 in
04:51 69.4 °F 68.0 °F 30.00 in SE 1.0 mph 11.0 mph 95 % 0.00 in
04:56 69.4 °F 68.0 °F 30.00 in ESE 6.0 mph 11.0 mph 95 % 0.00 in
05:01 69.4 °F 68.0 °F 30.00 in SSE 3.0 mph 10.0 mph 95 % 0.00 in
05:06 69.4 °F 68.0 °F 30.00 in ESE 7.0 mph 10.0 mph 95 % 0.00 in
05:11 69.4 °F 68.0 °F 30.00 in East 7.0 mph 10.0 mph 95 % 0.00 in
05:16 69.4 °F 68.0 °F 30.00 in East 4.0 mph 10.0 mph 95 % 0.00 in
05:21 69.4 °F 68.0 °F 30.00 in SE 3.0 mph 10.0 mph 95 % 0.00 in
05:26 69.4 °F 68.0 °F 30.00 in SE 4.0 mph 9.0 mph 95 % 0.00 in
05:31 69.4 °F 68.0 °F 30.00 in SE 3.0 mph 10.0 mph 95 % 0.00 in
05:36 69.4 °F 68.0 °F 30.00 in SE 5.0 mph 11.0 mph 95 % 0.00 in
05:41 69.4 °F 68.0 °F 30.00 in ESE 4.0 mph 11.0 mph 95 % 0.00 in
05:46 69.4 °F 68.0 °F 30.00 in SSE 2.0 mph 11.0 mph 95 % 0.00 in
05:51 69.4 °F 68.0 °F 30.01 in SE 3.0 mph 7.0 mph 95 % 0.00 in
05:56 69.4 °F 68.0 °F 30.01 in ESE 3.0 mph 7.0 mph 95 % 0.00 in
06:01 69.4 °F 68.0 °F 30.01 in SE 5.0 mph 7.0 mph 95 % 0.00 in
06:06 69.6 °F 68.2 °F 30.01 in SE 1.0 mph 7.0 mph 95 % 0.00 in
06:11 69.6 °F 68.2 °F 30.00 in SE 4.0 mph 7.0 mph 95 % 0.00 in
06:16 69.6 °F 68.2 °F 30.01 in SSE 3.0 mph 9.0 mph 95 % 0.00 in
06:21 69.6 °F 68.2 °F 30.01 in SE 4.0 mph 9.0 mph 95 % 0.00 in
06:26 69.6 °F 68.2 °F 30.01 in ESE 6.0 mph 9.0 mph 95 % 0.00 in
06:31 69.6 °F 68.2 °F 30.01 in SE 4.0 mph 8.0 mph 95 % 0.00 in
06:36 69.6 °F 68.2 °F 30.01 in ENE 5.0 mph 8.0 mph 95 % 0.00 in
06:41 69.6 °F 68.4 °F 30.01 in ESE 2.0 mph 8.0 mph 96 % 0.00 in
06:46 69.6 °F 68.4 °F 30.01 in SE 5.0 mph 8.0 mph 96 % 0.00 in
06:51 69.6 °F 68.4 °F 30.00 in SSE 5.0 mph 9.0 mph 96 % 0.00 in
06:56 69.6 °F 68.2 °F 30.01 in ESE 4.0 mph 9.0 mph 95 % 0.00 in
07:01 69.6 °F 68.2 °F 30.01 in SE 4.0 mph 9.0 mph 95 % 0.00 in
07:06 69.6 °F 68.4 °F 30.01 in SE 3.0 mph 9.0 mph 96 % 0.00 in
07:11 69.8 °F 68.5 °F 30.01 in ESE 4.0 mph 10.0 mph 96 % 0.00 in
07:16 70.0 °F 68.5 °F 30.01 in SE 4.0 mph 10.0 mph 95 % 0.00 in
07:21 70.0 °F 68.5 °F 30.01 in East 5.0 mph 10.0 mph 95 % 0.00 in
07:26 70.0 °F 68.5 °F 30.01 in SE 4.0 mph 9.0 mph 95 % 0.00 in
07:31 70.2 °F 68.7 °F 30.01 in SE 2.0 mph 8.0 mph 95 % 0.00 in
07:36 70.2 °F 68.7 °F 30.01 in SE 2.0 mph 7.0 mph 95 % 0.00 in
07:41 70.2 °F 68.7 °F 30.01 in South 5.0 mph 7.0 mph 95 % 0.00 in
07:46 70.2 °F 68.7 °F 30.01 in SE 6.0 mph 8.0 mph 95 % 0.00 in
07:51 70.2 °F 68.7 °F 30.01 in ESE 5.0 mph 11.0 mph 95 % 0.00 in
07:56 70.2 °F 68.7 °F 30.01 in SE 4.0 mph 11.0 mph 95 % 0.00 in
08:02 70.2 °F 68.7 °F 30.01 in SE 5.0 mph 11.0 mph 95 % 0.00 in
08:07 70.3 °F 68.9 °F 30.01 in SSE 8.0 mph 11.0 mph 95 % 0.00 in
08:12 70.3 °F 68.9 °F 30.01 in SSE 8.0 mph 11.0 mph 95 % 0.00 in
08:17 70.3 °F 68.9 °F 30.02 in South 5.0 mph 11.0 mph 95 % 0.00 in
08:22 70.5 °F 69.1 °F 30.02 in SE 6.0 mph 11.0 mph 95 % 0.00 in
08:27 70.5 °F 69.1 °F 30.02 in ESE 5.0 mph 11.0 mph 95 % 0.00 in
08:32 70.7 °F 69.3 °F 30.02 in SE 7.0 mph 11.0 mph 95 % 0.00 in
08:37 70.9 °F 69.4 °F 30.02 in South 4.0 mph 10.0 mph 95 % 0.00 in
08:42 70.9 °F 69.4 °F 30.02 in ESE 9.0 mph 10.0 mph 95 % 0.00 in
08:47 70.9 °F 69.4 °F 30.02 in SE 3.0 mph 10.0 mph 95 % 0.00 in
08:52 71.1 °F 69.6 °F 30.02 in SE 10.0 mph 10.0 mph 95 % 0.00 in
08:57 71.1 °F 69.6 °F 30.02 in SE 3.0 mph 12.0 mph 95 % 0.00 in
09:02 71.1 °F 69.3 °F 30.02 in SSE 7.0 mph 12.0 mph 94 % 0.00 in
09:07 71.1 °F 69.6 °F 30.02 in ESE 6.0 mph 12.0 mph 95 % 0.00 in
09:12 71.1 °F 69.6 °F 30.02 in SE 7.0 mph 12.0 mph 95 % 0.00 in
09:17 71.1 °F 69.6 °F 30.02 in SSE 5.0 mph 11.0 mph 95 % 0.00 in
09:22 71.1 °F 69.6 °F 30.02 in SE 7.0 mph 11.0 mph 95 % 0.00 in
09:27 71.2 °F 69.8 °F 30.02 in South 6.0 mph 11.0 mph 95 % 0.00 in
09:32 71.4 °F 70.0 °F 30.02 in SSW 4.0 mph 11.0 mph 95 % 0.00 in
09:37 71.8 °F 70.3 °F 30.02 in SSE 2.0 mph 14.0 mph 95 % 0.00 in
09:42 72.0 °F 70.2 °F 30.03 in SSE 6.0 mph 14.0 mph 94 % 0.00 in
09:47 72.1 °F 70.3 °F 30.02 in SSE 8.0 mph 14.0 mph 94 % 0.00 in
09:52 72.3 °F 70.5 °F 30.02 in ESE 9.0 mph 11.0 mph 94 % 0.00 in
09:57 72.7 °F 70.5 °F 30.02 in SSE 6.0 mph 14.0 mph 93 % 0.00 in
10:02 72.9 °F 70.3 °F 30.02 in SSE 1.0 mph 14.0 mph 92 % 0.00 in
10:07 72.9 °F 70.2 °F 30.02 in SSE 5.0 mph 14.0 mph 91 % 0.00 in
10:12 72.9 °F 70.2 °F 30.02 in SE 7.0 mph 13.0 mph 91 % 0.00 in
10:17 73.0 °F 70.3 °F 30.02 in SSE 4.0 mph 13.0 mph 91 % 0.00 in
10:22 73.2 °F 70.5 °F 30.02 in SE 9.0 mph 13.0 mph 91 % 0.00 in
10:27 73.6 °F 70.7 °F 30.02 in East 11.0 mph 12.0 mph 91 % 0.00 in
10:32 73.9 °F 70.9 °F 30.02 in SSE 3.0 mph 12.0 mph 90 % 0.00 in
10:37 74.5 °F 71.1 °F 30.02 in SSE 12.0 mph 12.0 mph 89 % 0.00 in
10:42 74.5 °F 70.7 °F 30.02 in SE 5.0 mph 14.0 mph 88 % 0.00 in
10:47 74.5 °F 71.1 °F 30.02 in SSE 5.0 mph 17.0 mph 89 % 0.00 in
10:52 74.7 °F 70.9 °F 30.02 in East 8.0 mph 17.0 mph 88 % 0.00 in
10:57 74.5 °F 70.7 °F 30.02 in South 6.0 mph 17.0 mph 88 % 0.00 in
11:02 74.3 °F 70.5 °F 30.02 in SSE 7.0 mph 13.0 mph 88 % 0.00 in
11:07 74.5 °F 71.1 °F 30.02 in South 6.0 mph 12.0 mph 89 % 0.00 in
11:12 74.7 °F 70.9 °F 30.02 in SE 10.0 mph 13.0 mph 88 % 0.00 in
11:18 75.2 °F 71.4 °F 30.02 in South 10.0 mph 17.0 mph 88 % 0.00 in
11:23 75.6 °F 71.8 °F 30.01 in SE 4.0 mph 17.0 mph 88 % 0.00 in
11:28 76.1 °F 72.0 °F 30.01 in SE 8.0 mph 17.0 mph 87 % 0.00 in
11:33 77.0 °F 72.1 °F 30.01 in SE 11.0 mph 17.0 mph 85 % 0.00 in
11:38 76.8 °F 71.2 °F 30.01 in SSE 7.0 mph 17.0 mph 83 % 0.00 in
11:43 76.5 °F 71.2 °F 30.01 in South 7.0 mph 17.0 mph 84 % 0.00 in
11:48 76.5 °F 71.6 °F 30.01 in SSE 11.0 mph 17.0 mph 85 % 0.00 in
11:53 76.1 °F 71.6 °F 30.01 in SSE 4.0 mph 16.0 mph 86 % 0.00 in
11:58 75.7 °F 71.2 °F 30.00 in SE 4.0 mph 15.0 mph 86 % 0.00 in
12:03 75.4 °F 71.6 °F 30.00 in SE 7.0 mph 14.0 mph 88 % 0.00 in
12:08 74.7 °F 71.2 °F 30.00 in SSW 7.0 mph 14.0 mph 89 % 0.00 in
12:13 75.0 °F 72.0 °F 30.00 in South 7.0 mph 20.0 mph 90 % 0.00 in
12:18 75.4 °F 72.5 °F 29.99 in SE 8.0 mph 20.0 mph 91 % 0.00 in
12:23 75.6 °F 72.5 °F 29.99 in South 3.0 mph 20.0 mph 90 % 0.00 in
12:28 75.9 °F 72.5 °F 29.98 in SE 8.0 mph 14.0 mph 89 % 0.00 in
12:33 76.3 °F 72.5 °F 29.98 in SE 4.0 mph 14.0 mph 88 % 0.00 in
12:38 76.6 °F 72.5 °F 29.98 in East 7.0 mph 14.0 mph 87 % 0.00 in
12:43 77.2 °F 72.7 °F 29.97 in South 9.0 mph 19.0 mph 86 % 0.00 in
12:48 77.5 °F 72.3 °F 29.97 in South 6.0 mph 19.0 mph 84 % 0.00 in
12:53 78.1 °F 72.9 °F 29.97 in SSE 8.0 mph 21.0 mph 84 % 0.00 in
12:58 78.3 °F 72.7 °F 29.97 in SE 8.0 mph 21.0 mph 83 % 0.00 in
13:03 77.9 °F 72.0 °F 29.96 in South 7.0 mph 21.0 mph 82 % 0.00 in
13:08 77.7 °F 71.8 °F 29.96 in SSE 3.0 mph 16.0 mph 82 % 0.00 in
13:13 77.7 °F 72.1 °F 29.96 in SSW 4.0 mph 16.0 mph 83 % 0.00 in
13:18 76.8 °F 71.6 °F 29.96 in SSE 6.0 mph 14.0 mph 84 % 0.00 in
13:23 76.1 °F 72.0 °F 29.96 in South 4.0 mph 13.0 mph 87 % 0.02 in
13:28 75.7 °F 72.3 °F 29.96 in South 7.0 mph 13.0 mph 89 % 0.02 in
13:33 75.7 °F 72.3 °F 29.95 in South 7.0 mph 13.0 mph 89 % 0.02 in
13:38 75.7 °F 72.3 °F 29.95 in SSE 5.0 mph 12.0 mph 89 % 0.02 in
13:43 76.1 °F 72.3 °F 29.95 in SW 10.0 mph 11.0 mph 88 % 0.02 in
13:48 76.5 °F 72.3 °F 29.94 in SSW 3.0 mph 10.0 mph 87 % 0.02 in
13:53 76.8 °F 72.0 °F 29.94 in South 6.0 mph 16.0 mph 85 % 0.02 in
13:58 77.0 °F 71.4 °F 29.94 in SSE 6.0 mph 16.0 mph 83 % 0.02 in
14:03 76.6 °F 71.4 °F 29.94 in ESE 6.0 mph 16.0 mph 84 % 0.02 in
14:08 76.6 °F 71.4 °F 29.94 in SSE 5.0 mph 15.0 mph 84 % 0.03 in
14:13 76.8 °F 72.0 °F 29.94 in WSW 7.0 mph 15.0 mph 85 % 0.03 in
14:18 76.6 °F 71.4 °F 29.94 in South 6.0 mph 15.0 mph 84 % 0.03 in
14:23 76.6 °F 71.1 °F 29.93 in SSE 13.0 mph 15.0 mph 83 % 0.01 in
14:28 76.6 °F 71.1 °F 29.94 in SSW 5.0 mph 18.0 mph 83 % 0.01 in
14:33 76.5 °F 71.6 °F 29.94 in SSW 8.0 mph 18.0 mph 85 % 0.01 in
14:38 76.5 °F 72.3 °F 29.93 in SSE 11.0 mph 18.0 mph 87 % 0.01 in
14:43 76.6 °F 72.5 °F 29.93 in SE 6.0 mph 16.0 mph 87 % 0.01 in
14:48 76.6 °F 72.1 °F 29.93 in South 5.0 mph 16.0 mph 86 % 0.01 in
14:53 77.2 °F 72.7 °F 29.93 in South 9.0 mph 16.0 mph 86 % 0.01 in
14:58 77.7 °F 72.9 °F 29.92 in South 6.0 mph 15.0 mph 85 % 0.01 in
15:03 77.9 °F 72.3 °F 29.92 in ESE 9.0 mph 15.0 mph 83 % 0.01 in
15:08 77.7 °F 71.8 °F 29.92 in SSE 12.0 mph 15.0 mph 82 % 0.00 in
15:14 77.5 °F 71.2 °F 29.92 in SSE 7.0 mph 15.0 mph 81 % 0.00 in
15:19 77.4 °F 71.1 °F 29.92 in SE 9.0 mph 17.0 mph 81 % 0.00 in
15:24 77.2 °F 70.9 °F 29.92 in SSE 12.0 mph 17.0 mph 81 % 0.00 in
15:29 76.8 °F 70.9 °F 29.92 in SSE 4.0 mph 17.0 mph 82 % 0.00 in
15:34 76.6 °F 71.8 °F 29.92 in SE 11.0 mph 15.0 mph 85 % 0.00 in
15:39 75.9 °F 71.4 °F 29.91 in SSE 12.0 mph 15.0 mph 86 % 0.00 in
15:43 75.7 °F 71.6 °F 29.91 in South 7.0 mph 17.0 mph 87 % 0.00 in
15:47 75.7 °F 71.6 °F 29.92 in South 7.0 mph 17.0 mph 87 % 0.00 in
15:52 75.7 °F 71.6 °F 29.91 in SE 5.0 mph 17.0 mph 87 % 0.00 in
15:56 75.7 °F 72.0 °F 29.91 in SE 3.0 mph 14.0 mph 88 % 0.01 in
15:58 75.7 °F 72.0 °F 29.91 in SSE 6.0 mph 14.0 mph 88 % 0.01 in
15:59 75.7 °F 72.0 °F 29.91 in ESE 8.0 mph 14.0 mph 88 % 0.01 in
16:00 75.7 °F 72.0 °F 29.91 in SE 9.0 mph 14.0 mph 88 % 0.02 in
16:05 75.6 °F 71.8 °F 29.91 in South 8.0 mph 15.0 mph 88 % 0.02 in
16:10 75.6 °F 71.8 °F 29.91 in South 8.0 mph 15.0 mph 88 % 0.02 in
16:15 75.9 °F 71.4 °F 29.91 in South 2.0 mph 15.0 mph 86 % 0.02 in
16:20 76.5 °F 71.6 °F 29.91 in SSE 9.0 mph 15.0 mph 85 % 0.02 in
16:25 76.6 °F 71.8 °F 29.91 in SSE 5.0 mph 15.0 mph 85 % 0.02 in
16:30 76.8 °F 71.6 °F 29.91 in ESE 8.0 mph 17.0 mph 84 % 0.02 in
16:35 76.8 °F 71.2 °F 29.91 in SE 11.0 mph 17.0 mph 83 % 0.02 in
16:40 76.6 °F 71.1 °F 29.91 in South 7.0 mph 20.0 mph 83 % 0.02 in
16:42 76.6 °F 71.1 °F 29.91 in SSE 14.0 mph 20.0 mph 83 % 0.02 in
16:47 76.5 °F 70.9 °F 29.91 in SSE 12.0 mph 20.0 mph 83 % 0.02 in
16:52 76.3 °F 70.7 °F 29.91 in SSE 6.0 mph 20.0 mph 83 % 0.02 in
16:55 76.3 °F 70.7 °F 29.91 in SSE 11.0 mph 16.0 mph 83 % 0.01 in
17:00 76.1 °F 70.5 °F 29.91 in East 3.0 mph 18.0 mph 83 % 0.00 in
17:05 76.1 °F 70.9 °F 29.91 in SE 7.0 mph 18.0 mph 84 % 0.00 in
17:08 76.1 °F 70.9 °F 29.91 in SSE 7.0 mph 18.0 mph 84 % 0.00 in
17:11 75.9 °F 70.7 °F 29.91 in ESE 6.0 mph 18.0 mph 84 % 0.00 in
17:17 75.9 °F 70.7 °F 29.91 in SE 9.0 mph 15.0 mph 84 % 0.00 in
17:22 75.9 °F 70.7 °F 29.91 in SE 6.0 mph 17.0 mph 84 % 0.00 in
17:27 75.9 °F 70.7 °F 29.91 in SSW 6.0 mph 17.0 mph 84 % 0.00 in
17:32 75.7 °F 70.5 °F 29.91 in SSE 6.0 mph 17.0 mph 84 % 0.00 in
17:37 75.7 °F 70.5 °F 29.91 in South 7.0 mph 16.0 mph 84 % 0.00 in
17:42 75.6 °F 70.3 °F 29.91 in SSW 11.0 mph 16.0 mph 84 % 0.00 in
17:47 75.6 °F 70.3 °F 29.91 in SE 6.0 mph 16.0 mph 84 % 0.00 in
17:52 75.6 °F 70.3 °F 29.91 in SSE 7.0 mph 15.0 mph 84 % 0.00 in
17:57 75.4 °F 70.2 °F 29.91 in SSE 11.0 mph 16.0 mph 84 % 0.00 in
18:02 75.2 °F 70.3 °F 29.91 in South 4.0 mph 16.0 mph 85 % 0.00 in
18:07 75.0 °F 70.2 °F 29.91 in South 4.0 mph 16.0 mph 85 % 0.00 in
18:12 75.0 °F 70.2 °F 29.91 in SE 5.0 mph 16.0 mph 85 % 0.00 in
18:17 74.8 °F 70.3 °F 29.91 in SE 3.0 mph 16.0 mph 86 % 0.00 in
18:22 74.7 °F 70.2 °F 29.91 in ESE 7.0 mph 16.0 mph 86 % 0.00 in
18:25 74.7 °F 70.2 °F 29.91 in SE 11.0 mph 14.0 mph 86 % 0.00 in
18:31 74.5 °F 70.0 °F 29.91 in SE 6.0 mph 14.0 mph 86 % 0.00 in
18:36 74.1 °F 70.0 °F 29.91 in ESE 7.0 mph 13.0 mph 87 % 0.00 in
18:41 74.1 °F 70.0 °F 29.91 in South 9.0 mph 14.0 mph 87 % 0.00 in
18:46 73.9 °F 69.8 °F 29.91 in SE 9.0 mph 14.0 mph 87 % 0.00 in
18:51 73.8 °F 69.6 °F 29.91 in SSE 4.0 mph 14.0 mph 87 % 0.00 in
18:53 73.8 °F 69.6 °F 29.91 in SE 5.0 mph 14.0 mph 87 % 0.00 in
18:57 73.8 °F 70.0 °F 29.91 in SSE 3.0 mph 14.0 mph 88 % 0.00 in
19:00 73.6 °F 69.8 °F 29.91 in SE 4.0 mph 12.0 mph 88 % 0.00 in
19:01 73.6 °F 69.8 °F 29.91 in SE 6.0 mph 12.0 mph 88 % 0.00 in
19:07 73.8 °F 70.0 °F 29.92 in ESE 7.0 mph 15.0 mph 88 % 0.00 in
19:12 73.8 °F 70.0 °F 29.92 in SSE 6.0 mph 15.0 mph 88 % 0.00 in
19:17 73.8 °F 70.0 °F 29.92 in ESE 4.0 mph 15.0 mph 88 % 0.00 in
19:22 73.8 °F 70.0 °F 29.92 in East 8.0 mph 12.0 mph 88 % 0.00 in
19:27 73.9 °F 70.2 °F 29.92 in South 3.0 mph 13.0 mph 88 % 0.00 in
19:32 73.8 °F 70.0 °F 29.92 in South 8.0 mph 13.0 mph 88 % 0.00 in
19:37 73.8 °F 70.0 °F 29.93 in ESE 9.0 mph 13.0 mph 88 % 0.00 in
19:42 73.8 °F 70.0 °F 29.93 in SE 6.0 mph 14.0 mph 88 % 0.00 in
19:47 73.8 °F 70.0 °F 29.93 in SE 5.0 mph 14.0 mph 88 % 0.00 in
19:52 73.8 °F 70.0 °F 29.93 in SSE 6.0 mph 14.0 mph 88 % 0.00 in
19:57 73.8 °F 70.0 °F 29.94 in SE 6.0 mph 14.0 mph 88 % 0.00 in
20:02 73.8 °F 70.0 °F 29.94 in SE 4.0 mph 14.0 mph 88 % 0.00 in
20:07 73.8 °F 70.0 °F 29.94 in South 6.0 mph 14.0 mph 88 % 0.00 in
20:12 73.6 °F 70.2 °F 29.94 in SSW 5.0 mph 13.0 mph 89 % 0.00 in
20:17 73.6 °F 70.2 °F 29.94 in SSE 4.0 mph 11.0 mph 89 % 0.00 in
20:22 73.6 °F 70.2 °F 29.94 in SE 4.0 mph 11.0 mph 89 % 0.00 in
20:27 73.6 °F 70.2 °F 29.94 in SSW 7.0 mph 11.0 mph 89 % 0.00 in
20:32 73.6 °F 70.2 °F 29.95 in South 7.0 mph 9.0 mph 89 % 0.00 in
20:37 73.6 °F 70.2 °F 29.94 in SE 7.0 mph 13.0 mph 89 % 0.00 in
20:42 73.4 °F 70.0 °F 29.95 in SSE 7.0 mph 13.0 mph 89 % 0.00 in
20:47 73.4 °F 70.0 °F 29.95 in SE 11.0 mph 13.0 mph 89 % 0.00 in
20:52 73.4 °F 70.0 °F 29.95 in SSE 7.0 mph 18.0 mph 89 % 0.00 in
20:57 73.4 °F 70.0 °F 29.95 in SE 5.0 mph 18.0 mph 89 % 0.00 in
21:02 73.4 °F 70.0 °F 29.95 in SSE 3.0 mph 18.0 mph 89 % 0.00 in
21:08 73.2 °F 69.8 °F 29.95 in SSE 9.0 mph 16.0 mph 89 % 0.00 in
21:13 73.2 °F 69.8 °F 29.96 in SE 5.0 mph 13.0 mph 89 % 0.00 in
21:18 73.2 °F 69.8 °F 29.96 in ESE 9.0 mph 14.0 mph 89 % 0.00 in
21:23 73.2 °F 69.8 °F 29.96 in SSW 7.0 mph 14.0 mph 89 % 0.00 in
21:28 73.2 °F 69.8 °F 29.95 in SE 8.0 mph 14.0 mph 89 % 0.00 in
21:33 73.2 °F 69.8 °F 29.96 in South 3.0 mph 13.0 mph 89 % 0.00 in
21:38 73.2 °F 69.8 °F 29.96 in SE 5.0 mph 12.0 mph 89 % 0.00 in
21:43 73.2 °F 69.8 °F 29.96 in SE 12.0 mph 13.0 mph 89 % 0.00 in
21:48 73.2 °F 70.2 °F 29.96 in SE 3.0 mph 14.0 mph 90 % 0.00 in
21:53 73.2 °F 70.2 °F 29.96 in South 5.0 mph 14.0 mph 90 % 0.00 in
21:58 73.2 °F 70.2 °F 29.96 in South 3.0 mph 14.0 mph 90 % 0.00 in
22:03 73.0 °F 70.0 °F 29.96 in SSE 5.0 mph 9.0 mph 90 % 0.00 in
22:08 73.0 °F 70.0 °F 29.96 in SSW 3.0 mph 9.0 mph 90 % 0.00 in
22:13 73.0 °F 70.0 °F 29.96 in ESE 5.0 mph 10.0 mph 90 % 0.00 in
22:18 73.0 °F 70.0 °F 29.97 in South 3.0 mph 12.0 mph 90 % 0.00 in
22:23 73.0 °F 70.0 °F 29.96 in South 6.0 mph 12.0 mph 90 % 0.00 in
22:28 73.0 °F 70.0 °F 29.96 in SSW 5.0 mph 13.0 mph 90 % 0.00 in
22:33 73.0 °F 70.3 °F 29.96 in South 4.0 mph 13.0 mph 91 % 0.00 in
22:38 72.9 °F 70.2 °F 29.96 in SSW 6.0 mph 13.0 mph 91 % 0.00 in
22:43 72.9 °F 70.2 °F 29.96 in SSW 3.0 mph 11.0 mph 91 % 0.00 in
22:48 72.9 °F 70.2 °F 29.97 in ESE 8.0 mph 10.0 mph 91 % 0.00 in
22:53 72.9 °F 70.2 °F 29.96 in SSE 8.0 mph 10.0 mph 91 % 0.00 in
22:58 72.9 °F 70.2 °F 29.97 in SW 7.0 mph 11.0 mph 91 % 0.00 in
23:03 72.9 °F 70.2 °F 29.97 in SSE 8.0 mph 11.0 mph 91 % 0.00 in
23:08 72.9 °F 70.2 °F 29.97 in SE 6.0 mph 11.0 mph 91 % 0.00 in
23:13 72.9 °F 70.2 °F 29.97 in SE 4.0 mph 14.0 mph 91 % 0.00 in
23:18 72.9 °F 70.3 °F 29.97 in SSE 4.0 mph 14.0 mph 92 % 0.00 in
23:23 72.9 °F 70.3 °F 29.97 in SSE 3.0 mph 14.0 mph 92 % 0.00 in
23:28 72.7 °F 70.2 °F 29.97 in SSE 3.0 mph 10.0 mph 92 % 0.00 in
23:33 72.7 °F 70.2 °F 29.97 in SSE 2.0 mph 9.0 mph 92 % 0.00 in
23:38 72.7 °F 70.2 °F 29.97 in South 4.0 mph 9.0 mph 92 % 0.00 in
23:43 72.7 °F 70.2 °F 29.97 in SSE 4.0 mph 10.0 mph 92 % 0.00 in
23:48 72.7 °F 70.2 °F 29.97 in SSE 3.0 mph 10.0 mph 92 % 0.00 in
23:53 72.7 °F 70.2 °F 29.96 in SE 5.0 mph 10.0 mph 92 % 0.00 in
23:58 72.5 °F 70.0 °F 29.96 in SE 10.0 mph 10.0 mph 92 % 0.00 in
Spring, Texas: Villages of Bridgestone
Compliments of Weather Underground - 2.75 mb

Script developed by  Jim McMurry - jmcmurry@mwt.net Adapted for the template by  Wim van der Kuil - Leuven-Template.eu

You find our weather info also at:

UK Metoffice

WeatherCloud

Weather Underground

Mid-South Weather Network

AWEKAS

Citizen Weather Observer Program (CWOP)

HAMweather, WeatherForYou, PWS Weather

Equipment we use:

Weather-station
Davis Vantage Vue

Weather-program
Meteohub

Weather-server
Debian 7.9 x86 (Guest)

Provider
DreamHost

Davis Vantage Vue

Meteohub

Debian 7.9 x86 (Guest)

DreamHost